Regional Weather Roundup
Issued by NWS

Home | Current Version | Previous Version | Text Only | Print | Product List | Glossary Off
Versions: 1 2 3 4 5 6 7 8 9 10 11 12 13 14 15 16 17 18 19 20 21 22 23 24 25 26 27 28 29 30 31 32 33 34 35 36 37 38 39 40 41 42 43 44 45 46 47 48 49 50

000
ASUS45 KTFX 241819
RWRMT
MONTANA HOURLY WEATHER ROUNDUP
NATIONAL WEATHER SERVICE GREAT FALLS MT
1219 PM MDT THU JUL 24 2014

NOTE: "FAIR" INDICATES FEW OR NO CLOUDS BELOW 12000 FEET WITH NO
SIGNIFICANT WEATHER AND/OR OBSTRUCTIONS TO VISIBILITY.

* THESE STATIONS ARE NOT UNDER NWS QUALITY CONTROL. THEY DO NOT
   REPORT WEATHER SUCH AS PRECIPITATION OR FOG.

MTZ001>007-043-241900-
WEST OF THE DIVIDE
CITY           SKY/WX    TMP DP  RH WIND       PRES   REMARKS
KALISPELL      PTSUNNY   63  36  37 SW12G23   30.05R
MISSOULA       PTSUNNY   63  43  48 NW10G17   30.15R
BUTTE          PTCLDY    70  41  35 W15       30.04F
MULLAN PASS    CLOUDY    37  36  96 N/A       30.18R
* ESSEX        N/A       52  44  74 E2G9       N/A
* LINCOLN      N/A       60  49  67 S6G15      N/A
* LOOKOUT PASS N/A       45  37  74 E9G14      N/A
* POLSON       N/A       62  45  54 SE4G11     N/A
* RONAN APT    PTSUNNY   54  48  80 SE5        N/A
* SEELEY LAKE  N/A       58  43  58 NW8G19     N/A
* THOMP F APT  SUNNY     75  37  25 S15G26     N/A
$$

MTZ008-052>055-241900-
SOUTHWEST MONTANA
CITY           SKY/WX    TMP DP  RH WIND       PRES   REMARKS
BOZEMAN        SUNNY     75  50  42 NW9       29.93F
DILLON         SUNNY     73  36  26 W24G36    29.98F
W YELLOWSTONE  SUNNY     72  37  28 SW15G30   30.16S
* THREE FORKS  SUNNY     75  66  74 NW6        N/A
* BOULDER HILL N/A       67  46  47 NW4        N/A
* MONIDA PASS  N/A       71  31  23 S26G46     N/A
* RAYNOLDS PAS N/A       71  53  53 S22G31     N/A
* WHITEHALL    N/A       80  50  35 NW5        N/A
* WISE RIVER   N/A       69  43  39 W18G26     N/A
$$

MTZ009>010-012-014-046-048-049-054-241900-
EAST SLOPES AND CENTRAL MONTANA
CITY           SKY/WX    TMP DP  RH WIND       PRES   REMARKS
CUT BANK       PTCLDY    64  37  37 W37G51    29.94R
GREAT FALLS    PTSUNNY   73  48  41 SW16G24   29.90F
HELENA         PTSUNNY   77  46  33 W12G18    29.93F
* CONRAD       PTCLDY    61  55  81 W10G18     N/A
* DEARBORN     N/A       74  44  34 S12G20     N/A
* EAST GLACIER N/A       53  39  59 W27G34     N/A
* MONARCH      N/A       68  44  42 NW11G17    N/A
* PENDROY      N/A       67  48  51 W8G14      N/A
* ROGERS PASS  N/A       51  46  83 SE7G18     N/A
* SAINT MARY   N/A       58  37  46 SW10G22    N/A
* SWEET GRASS  N/A       66  41  40 W22G34     N/A
* WHITE SULPH  N/A       74  52  46 W6G12      N/A
$$

MTZ011-013-016-021-035-040-045-047-050-051-241900-
NORTH CENTRAL MONTANA
CITY           SKY/WX    TMP DP  RH WIND       PRES   REMARKS
HAVRE          PTCLDY    81  59  47 W16       29.79F HI  81
LEWISTOWN      SUNNY     79  55  44 W8        29.88F
* FORT BENTON  SUNNY     79  48  34 W12G20    29.85F
* CHESTER      N/A       72  47  41 NW19G28    N/A
* DENTON       N/A       77  53  43 NW7G17     N/A
* JUDITH GAP   N/A       74  55  52 VRB12G18    N/A
* LOMA         N/A       77  50  39 W13G23     N/A
$$

MTZ017>020-022>027-061-062-241900-
NORTHEAST MONTANA
CITY           SKY/WX    TMP DP  RH WIND       PRES   REMARKS
GLASGOW        SUNNY     88  57  35 SE14      29.73F
GLENDIVE       PTSUNNY   79  63  58 E14       29.78F
JORDAN         SUNNY     88  57  35 S12       29.74R
SIDNEY         TSTM      81  64  56 S6        29.80R HI  83
WOLF POINT     PTCLDY    84  59  43 SE9G18    29.75F HI  84
* BEAVER HILL  N/A       76  62  62 SE22G29    N/A
* CIRCLE       N/A       81  64  56 E10G17     N/A   HI  83
* LINDSAY DVD  N/A       75  61  62 E17G24     N/A
* NAVAJO       N/A       79  61  54 SE14G19    N/A
$$

MTZ028>042-056>058-241900-
SOUTHCENTRAL AND SOUTHEAST MONTANA
CITY           SKY/WX    TMP DP  RH WIND       PRES   REMARKS
BAKER          PTCLDY    82  63  53 S15G22    29.81R HI  83
BILLINGS       SUNNY     84  61  46 CALM      29.82F HI  84
LIVINGSTON     SUNNY     88  43  21 VRB6G18   29.87F
MILES CITY     PTCLDY    86  61  43 SE8       29.74F HI  86
* LAUREL APT   SUNNY     84  63  49 NE5        N/A   HI  85
* ROUNDUP APT  SUNNY     82  61  49 N/A        N/A   HI  83
* ALZADA       N/A       90  62  39 NE1G8      N/A
* HYSHAM       N/A       87  59  39 NW7        N/A
* LAME DEER    N/A       85  57  39 SW9G16     N/A
* REED POINT   N/A       90  49  24 W12        N/A
* ROSCOE HILL  N/A       86  33  15 SW9G24     N/A
$$

REGIONAL REPORTS...DAKOTAS
CITY           SKY/WX    TMP DP  RH WIND       PRES   REMARKS
WILLISTON      SUNNY     81  63  54 SE17G22   29.76F HI  82
DICKINSON      CLOUDY    72  63  73 SE20      29.81F
CROSBY         SUNNY     77  66  69 S9        29.80F
TIOGA          SUNNY     77  66  69 S18G28    29.82F
WATFORD CITY   SUNNY     77  64  64 SE16G23   29.78F
BISMARCK       CLOUDY    75  61  62 SE24G31   29.86F
GRAND FORKS    LGT RAIN  72  63  73 SE18G24   29.86F
FARGO          CLOUDY    70  59  68 S9        29.95F
BUFFALO SD     SUNNY     79  64  60 VRB5      29.76S
RAPID CITY     CLOUDY    82  70  67 E6        29.81S HI  86
$$

REGIONAL REPORTS...WYOMING/IDAHO/WASHINGTON
CITY           SKY/WX    TMP DP  RH WIND       PRES   REMARKS
GILLETTE       PTCLDY    99  45  16 W16G28    29.86F
SHERIDAN       SUNNY     93  57  30 VRB3      29.84F
YELLOWSTONE LA SUNNY     68  28  22 W10G24    30.27R
SALMON         SUNNY     75  36  24 W13G24    30.01R
MULLAN PASS    CLOUDY    37  36  96 N/A       30.18S
SAND POINT     CLOUDY    55  43  64 S9G18     30.12S
SPOKANE        PTSUNNY   61  43  52 SW25G32   30.13S
$$

REGIONAL REPORTS...ALBERTA
CITY           SKY/WX    TMP DP  RH WIND       PRES   REMARKS
CALGARY        SUNNY     70  34  27 SW17G25   29.70F
LETHBRIDGE     PTSUNNY   64  39  40 SW21G36   29.86R
MEDICINE HAT   CLOUDY    63  55  75 W10       29.81S
EDMONTON       PTCLDY    72  57  59 S8        29.59F
WATERTON GATE  N/A       59  34  39 W25G36     N/A
CARDSTON       N/A       63  36  37 W16G28     N/A
MILK RIVER     N/A       70  37  30 W28G38     N/A
$$

REGIONAL REPORTS...SASKATCHEWAN
CITY           SKY/WX    TMP DP  RH WIND       PRES   REMARKS
SWIFT CURRENT  PTSUNNY   75  63  66 SE15      29.77F
MOOSE JAW      PTCLDY    82  63  53 S13       29.76F HI  83
REGINA         SUNNY     79  66  65 S14       29.78F
VAL MARIE      N/A       77  61  58 SE6        N/A
ASSINIBOIA     N/A       77  61  58 S9         N/A
CORONACH       N/A       81  61  51 SE9        N/A   HI  82

$$




USA.gov is the U.S. government's official web portal to all federal, state and local government web resources and services.